Welcome to the New NWS' Forecast!
Most changes are behind the scenes, but click here for differences you might notice.
Latest weather observations around

Wenatchee, Pangborn Memorial Airport (KEAT)

Using English Units (Switch to International System of Units)
Date/ Time (PDT) Wind (mph) Vis. (mi) Weather Sky Cond. Temp (°F) Rel. Humidity Wind Chill (°F) Heat Index (°F) Pressure Precip. (in)
Air Dwpt 6 hour Altimeter (inHg) Sea level (inHg) 1 hr 3 hr 6 hr
Max Min
Jul 19 11:55 WNW 8 10 Clear CLR 82 43     25%   80 29.96 29.93      
Jul 19 10:55 WNW 11 10 Clear CLR 79 45     30%   78 29.97 29.94      
Jul 19 09:55 NW 14 10 Clear CLR 75 47     37%   74 29.98 29.96      
Jul 19 08:55   10 Clear CLR 73 48     41%   72 29.99 29.96      
Jul 19 07:55 WNW 14 10 Clear CLR 71 49     45%   70 29.99 29.96      
Jul 19 06:55 NW 9 10 Clear CLR 69 50     51%     29.99 29.96      
Jul 19 05:55 NNW 6 10 Clear CLR 66 50     56%     29.99 29.96      
Jul 19 04:55 WNW 14 10 Clear CLR 68 50     53%     29.98 29.95      
Jul 19 03:55 WNW 17 10 Clear CLR 68 50     53%     29.97 29.93      
Jul 19 02:55 WNW 16 10 Clear CLR 70 49     47%     29.97 29.93      
Jul 19 01:55 WNW 10 10 Clear CLR 69 50     51%     29.97 29.94      
Jul 19 00:55 WNW 18 10 Clear CLR 71 49     45%   70 29.97 29.93      
Jul 18 23:55 WNW 13 10 Clear CLR 73 48     41%   72 29.97 29.94      
Jul 18 22:55 WNW 18 10 Clear CLR 75 47     37%   74 29.96 29.93      
Jul 18 21:55 WNW 17 10 Clear CLR 78 44     30%   77 29.96 29.93      
Jul 18 20:55 WNW 20 10 Clear and Windy CLR 81 42     25%   80 29.94 29.91      
Jul 18 19:55 WNW 17 10 Clear CLR 85 42     22%   82 29.94 29.9      
Jul 18 18:55 WNW 20 10 Clear and Windy CLR 88 41     19%   84 29.93 29.9      
Jul 18 17:55 NW 23 10 Clear and Windy CLR 91 39     16%   87 29.93 29.89      
Jul 18 16:55 NW 23 10 Clear and Windy CLR 92 38     15%   88 29.93 29.89      
Jul 18 15:55 WNW 22 10 Clear and Windy CLR 95 37     13%   90 29.92 29.89      
Jul 18 14:55 NW 18 10 Clear CLR 95 37     13%   90 29.93 29.9      
Jul 18 13:55 WNW 18 10 Clear CLR 94        %     29.94 29.91      
Jul 18 12:55   10 Clear CLR 91 43     19%   87 29.95 29.91      
Jul 18 11:55 NW 18 10 Clear CLR 89 44     21%   86 29.96 29.92      
Jul 18 10:55 WNW 18 10 Clear CLR 86 45     24%   83 29.97 29.93      
Jul 18 09:55 WNW 18 10 Clear CLR 82 46     28%   80 29.98 29.94      
Jul 18 08:55 WNW 16 10 Clear CLR 79 47     32%   78 29.98 29.94      
Jul 18 07:55 WNW 17 10 Clear CLR 76 46     35%   75 29.97 29.94      
Jul 18 06:55   10 Clear CLR 74 46     37%   73 29.95 29.92      
Jul 18 05:55   10 Clear CLR 72 46     40%   71 29.94 29.91      
Jul 18 04:55 WNW 9 10 Clear   72 46     40%   71 29.94 29.9      
Jul 18 03:55 WNW 6 10 Clear CLR 72 47     41%   71 29.93 29.89      
Jul 18 02:55 WNW 14 10 Clear CLR 75 46     36%   74 29.92 29.88      
Jul 18 01:55 WNW 15 10 Clear CLR 76 45     33%   75 29.9 29.86      
Jul 18 00:55 WNW 14 10 Clear CLR 77 44     31%   76 29.9 29.86      
Jul 17 23:55 WNW 15 10 Clear CLR 79 43     28%   78 29.89 29.85      
Jul 17 22:55 WNW 10 10 Clear CLR 81 41     24%   80 29.89 29.85      
Jul 17 21:55 WNW 16 10 Clear CLR 84 40     21%   81 29.88 29.84      
Jul 17 20:55 NW 17 10 Clear CLR 87 42     21%   84 29.85 29.82      
Jul 17 19:55 WNW 17 10 Clear CLR 92 46     21%   88 29.83 29.79      
Jul 17 18:55 WNW 18 10 Clear CLR 96 46     18%   92 29.82 29.78      
Jul 17 17:55 E 8 10 Clear CLR 96 49     20%   93 29.81 29.77      
Jul 17 16:55 E 9 10 Clear CLR 97 44     16%   93 29.83 29.79      
Jul 17 15:55 ESE 9 10 Clear CLR 97 42     15%   93 29.85 29.8      
Jul 17 14:55 ESE 11 10 Clear CLR 98 39     13%   93 29.86 29.82      
Jul 17 13:55 SE 11 10 Clear CLR 96 46     18%   92 29.88 29.83      
Jul 17 12:55 ESE 7 10 Clear CLR 94 44     18%   90 29.9 29.85      
Jul 17 11:55 E 3 10 Clear CLR 92 45     20%   88 29.91 29.87      
Jul 17 10:55 W 7 10 Clear CLR 87 45     23%   84 29.93 29.89      
Jul 17 09:55 W 7 10 Clear CLR 84 41     22%   81 29.95 29.91      
Jul 17 08:55 W 6 10 Clear CLR 78 46     32%   77 29.96 29.92      
Jul 17 07:55 W 6 10 Clear CLR 75 48     38%   74 29.96 29.92      
Jul 17 06:55 WSW 7 10 Clear CLR 72 48     43%   71 29.94 29.91      
Jul 17 05:55 SW 7 10 Clear CLR 70 48     46%     29.94 29.9      
Jul 17 04:55 NW 8 10 Clear CLR 76 46     35%   75 29.93 29.89      
Jul 17 03:55 WNW 9 10 Clear CLR 77 47     35%   76 29.93 29.88      
Jul 17 02:55 WNW 6 10 Clear CLR 76 49     39%   75 29.92 29.88      
Jul 17 01:55 NW 9 10 Clear CLR 80 48     33%   79 29.92 29.88      
Jul 17 00:55 NNW 8 10 Clear CLR 81 48     32%   80 29.91 29.88      
Jul 16 23:55 NNW 6 10 Clear CLR 81 49     33%   80 29.91 29.87      
Jul 16 22:55 NNW 8 10 Clear CLR 83 46     28%   81 29.9 29.87      
Jul 16 21:55 ESE 8 10 Clear CLR 88 40     19%   84 29.89 29.85      
Jul 16 20:55 E 9 10 Clear CLR 87 45     23%   84 29.88 29.84      
Jul 16 19:55 E 11 10 Clear CLR 90 45     21%   86 29.87 29.83      
Jul 16 18:55 E 9 10 Clear CLR 94 44     18%   90 29.86 29.83      
Jul 16 17:55 ESE 6 10 Clear CLR 97 45     17%   93 29.87 29.83      
Jul 16 16:55 SE 11 10 Clear CLR 98 40     14%   93 29.88 29.85      
Jul 16 15:55 ESE 9 10 Clear CLR 98 40     14%   93 29.9 29.86      
Jul 16 14:55 SE 10 10 Clear CLR 97 41     15%   93 29.92 29.88      
Jul 16 13:55 SE 9 10 Clear CLR 96 40     14%   92 29.93 29.89      
Jul 16 12:55 5 10 Clear CLR 93 43     18%   89 29.95 29.91      
Jul 16 11:55 Calm 10 Clear CLR 90 48     24%   87   29.93      
Notice The following observation data may not be complete
May 13 19:55 NNW 3 10 Clear CLR   41      %     29.89 29.87      
May 13 16:55 S 8 10 Clear CLR 85        %     29.89 29.87      
May 13 15:55 W 7 10 Clear CLR 86        %     29.9 29.87      
May 13 08:55 WNW 14 10 Clear CLR 63 42     46%     29.97 29.95      
May 12 19:55 Calm 10 Clear CLR 79 35     20%   78 29.88 29.86      
May 12 13:55 WNW 14 10 Clear CLR 81 34     18%   80 29.96 29.93      
May 11 21:55 E 8 10 Cloudy OVC100 60 51     72%     30.1 30.09      
May 11 10:55   10 Cloudy BKN075 OVC095 63 40     43%     30.08 30.07     0
Jun 12 00:55 W 13 10 Clear CLR 60 43     53%     29.85 29.84      
Jun 11 21:55 WNW 14 10 Clear CLR 65 42     43%     29.86 29.85      
Jun 11 19:55 WNW 7 10 Clear   72 37     28%   70 29.85 29.83      
Jun 11 08:55   10 Clear CLR 60 39     46%     29.96 29.95      
Jun 10 01:55 NW 11 10 Clear CLR 52 36     54%     29.74 29.74      
Jun 10 00:55 NW 14 10 Clear CLR 53 35     50%     29.74 29.73      
Jun 09 22:55 WNW 14 10 Clear CLR 57 35     44%     29.73 29.72     0
Jun 09 20:55 WNW 11 10 Clear CLR 61 35     38%     29.69 29.68      
Jun 09 10:55 6 10 Clear CLR 60 35     39%     29.8 29.79      
Jun 08 11:55   8 Rain BKN055 BKN075 OVC090 64 57     78%     29.63 29.61 0    
Jun 08 07:55 S 10 10 Clear CLR 71 51     49%   70 29.57 29.54      
Jun 05 19:55 SE 7 10 Clear   71 35     27%   69 30.06 30.05